This demonstration page uses our WeatherBlox Daily Observations layout. Learn more.

36.17497, -115.13722

Hourly Observations for October 20, 2020

Temp ( °F °C ) Dew Point ( °F °C ) Humidity (%) Winds ( mph kmh ) Pressure ( in mb ) Visibility ( mi km ) Precip ( " mm )
12:53 am 00:53 Clear 71 21.7 28 -2.2 20 20 ESE 3 6 29.87 1012 10 16.0934 0 0
1:53 am 01:53 Clear 69 20.6 24 -4.4 18 18 NE 3 6 29.87 1012 10 16.0934 0 0
2:53 am 02:53 Clear 71 21.7 24 -4.4 17 17 NE 7 11 29.87 1011 10 16.0934 0 0
3:53 am 03:53 Clear 66 18.9 27 -2.8 23 23 WNW 5 7 29.86 1011 10 16.0934 0 0
4:53 am 04:53 Clear 70 21.1 24 -4.4 18 18 WNW 7 11 29.87 1012 10 16.0934 0 0
5:53 am 05:53 Clear 67 19.4 24 -4.4 20 20 WNW 5 7 29.88 1012 10 16.0934 0 0
6:53 am 06:53 Clear 65 18.3 24 -4.4 21 21 Calm 29.91 1013 10 16.0934 0 0
7:53 am 07:53 Sunny 68 20 26 -3.3 21 21 WNW 8 13 29.92 1013 10 16.0934 0 0
8:53 am 08:53 Mostly Sunny 76 24.4 25 -3.9 15 15 NNW 6 9 29.93 1014 10 16.0934 0 0
9:53 am 09:53 Sunny 80 26.7 23 -5 12 12 N 9 15 29.93 1014 10 16.0934 0 0
10:53 am 10:53 Sunny 83 28.3 24 -4.4 11 11 VRB 3 6 29.92 1013 10 16.0934 0 0
11:53 am 11:53 Sunny 85 29.4 25 -3.9 11 11 VRB 5 7 29.9 1013 10 16.0934 0 0
12:53 pm 12:53 Sunny 87 30.6 25 -3.9 10 10 Calm 29.87 1011 10 16.0934 0 0
1:53 pm 13:53 Sunny 89 31.7 25 -3.9 10 10 VRB 3 6 29.83 1010 10 16.0934 0 0
2:53 pm 14:53 Sunny 89 31.7 25 -3.9 10 10 Calm 29.81 1010 10 16.0934 0 0
3:53 pm 15:53 Sunny 90 32.2 24 -4.4 9 9 Calm 29.79 1009 10 16.0934 0 0
4:53 pm 16:53 Sunny 89 31.7 24 -4.4 9 9 SE 3 6 29.78 1009 10 16.0934 0 0
5:53 pm 17:53 Sunny 87 30.6 23 -5 9 9 Calm 29.78 1009 10 16.0934 0 0
6:53 pm 18:53 Clear 84 28.9 24 -4.4 11 11 Calm 29.8 1009 10 16.0934 0 0
7:53 pm 19:53 Clear 78 25.6 31 -0.6 18 18 WNW 6 9 29.81 1010 10 16.0934 0 0
8:53 pm 20:53 Clear 75 23.9 29 -1.7 18 18 WNW 7 11 29.81 1009 10 16.0934 0 0
9:53 pm 21:53 Clear 72 22.2 31 -0.6 22 22 NNW 6 9 29.81 1010 10 16.0934 0 0
10:53 pm 22:53 Clear 70 21.1 29 -1.7 22 22 WNW 6 9 29.81 1010 10 16.0934 0 0

Powered by AerisWeather